Preview of NWS' New Version of Forecast
This preview is not operational and should not be used for support decisions.

Regional Weather Roundup (RWR)

Issued by National Weather Service (NWS)

                            
000
ASUS44 KMEG 232300
RWRTN 
TENNESSEE HOURLY STATE WEATHER ROUNDUP
NATIONAL WEATHER SERVICE MEMPHIS TN
500 PM CST SAT FEB 23 2019

TNZ002-004-019-021-049-052-054-088>092-240000-
WEST TENNESSEE
  
CITY           SKY/WX    TMP DP  RH WIND       PRES   REMARKS
MEMPHIS INTL   CLOUDY    71  66  84 SW15G23   29.68R                  
NWS MEMPHIS      N/A     71 N/A N/A MISG        N/A                   
JACKSON        LGT RAIN  62  61  96 N3        29.68F                  
DYERSBURG      LGT RAIN  60  60 100 SE5       29.67F                  
$$

TNZ008-025-027-028-033-062-065-066-240000-
NORTH MIDDLE TENNESSEE
  
CITY           SKY/WX    TMP DP  RH WIND       PRES   REMARKS
NASHVILLE      CLOUDY    62  58  86 S16G24    29.74F                  
CLARKSVILLE    RAIN      58  55  90 SE9       29.73R FOG              
SMYRNA         LGT RAIN  61  59  93 S10       29.76F                  
CROSSVILLE     CLOUDY    53  51  93 S13G20    29.90F                  
$$

TNZ061-075-076-078-094-096-097-240000-
SOUTH MIDDLE TENNESSEE
  
CITY           SKY/WX    TMP DP  RH WIND       PRES   REMARKS
$$

TNZ017-018-042-046-047-240000-
NORTHEAST TENNESSEE
  
CITY           SKY/WX    TMP DP  RH WIND       PRES   REMARKS
TRI CITIES     CLOUDY    49  49 100 CALM      30.04F                  
$$

TNZ012-013-036-069-073-074-240000-
CENTRAL EAST TENNESSEE
  
CITY           SKY/WX    TMP DP  RH WIND       PRES   REMARKS
KNOXVILLE      CLOUDY    52  50  93 NE8       29.95F FOG              
OAK RIDGE      CLOUDY    51  51 100 CALM      29.96F                  
$$

TNZ083-085-099-240000-
SOUTHEAST TENNESSEE
  
CITY           SKY/WX    TMP DP  RH WIND       PRES   REMARKS
CHATTANOOGA    CLOUDY    54  52  93 S6        29.96F FOG              
$$

SKY/WX REPORTED AS FAIR MEANS FEW OR NO CLOUDS BELOW
12 THOUSAND FEET.